FW0019 Weather Reports


time (UTC)temp
C
wind
direction
speed
KPH
gust
KPH
rain 1hr
cm
rain 24hr
cm
rain mn
cm
humidity
%
barometer
mb
20260507083012 9 118 0.0 0.0 0.00 0.03 0.00 78 880.4
20260507081510 10 118 0.0 3.2 0.00 0.03 0.00 76 880.4
20260507080004 11 118 0.0 3.2 0.00 0.03 0.00 71 880.5
20260507074500 12 118 1.6 8.0 0.00 0.03 0.00 61 880.5
20260507073102 11 150 6.4 9.7 0.00 0.03 0.00 61 880.5
20260507071605 11 142 6.4 9.7 0.00 0.03 0.00 64 880.6
20260507070105 11 138 3.2 9.7 0.00 0.03 0.03 68 880.7
20260507064557 11 136 3.2 12.9 0.00 0.03 0.03 71 880.7
20260507063053 11 154 0.0 0.0 0.00 0.03 0.03 74 880.7
20260507061553 11 154 0.0 8.0 0.00 0.03 0.03 69 880.8
20260507060050 11 135 4.8 8.0 0.00 0.03 0.03 69 880.7
20260507054609 12 140 4.8 11.3 0.00 0.03 0.03 67 880.8
20260507053102 12 100 6.4 9.7 0.00 0.03 0.03 68 880.8
20260507051556 11 114 6.4 12.9 0.00 0.03 0.03 72 880.8
20260507050054 11 142 4.8 9.7 0.00 0.03 0.03 76 880.7
20260507044554 11 158 3.2 8.0 0.00 0.03 0.03 78 880.8
20260507043047 11 134 4.8 9.7 0.00 0.03 0.03 77 880.7
20260507041559 11 136 4.8 8.0 0.00 0.03 0.03 75 880.7
20260507040045 12 113 6.4 14.5 0.00 0.03 0.03 73 880.6
20260507034546 11 140 4.8 12.9 0.00 0.03 0.03 75 880.4
20260507033045 11 119 6.4 11.3 0.00 0.03 0.03 77 880.3
20260507031545 11 109 3.2 8.0 0.00 0.03 0.03 78 880.3
20260507030044 11 101 4.8 11.3 0.00 0.03 0.03 80 880.2
20260507024547 11 110 4.8 11.3 0.00 0.03 0.03 86 880.1
20260507023043 12 114 4.8 9.7 0.00 0.03 0.03 83 880.0
20260507021549 13 108 4.8 9.7 0.00 0.03 0.03 80 880.0
20260507020059 14 128 8.0 14.5 0.00 0.03 0.03 78 879.9
20260507014601 15 119 8.0 16.1 0.00 0.03 0.03 76 879.8
20260507013047 15 145 9.7 14.5 0.00 0.03 0.03 74 879.8
20260507011551 15 100 11.3 19.3 0.00 0.03 0.03 72 879.8
20260507010045 16 167 9.7 16.1 0.00 0.03 0.03 71 879.8
20260507004540 16 132 11.3 19.3 0.00 0.03 0.03 69 879.8
20260507003039 16 123 9.7 22.5 0.00 0.03 0.03 69 879.8
20260507001555 16 109 11.3 22.5 0.00 0.03 0.03 67 879.7
20260507000048 16 129 11.3 20.9 0.00 0.03 0.03 66 879.5
20260506234549 16 136 12.9 25.7 0.00 0.03 0.03 65 879.4
20260506233041 16 164 14.5 27.4 0.00 0.03 0.03 64 879.4
20260506231538 17 132 14.5 25.7 0.00 0.03 0.03 62 879.5
20260506230037 17 133 14.5 20.9 0.00 0.03 0.03 58 879.5
20260506224537 17 150 6.4 17.7 0.00 0.03 0.03 57 879.5
20260506223038 17 98 9.7 19.3 0.00 0.03 0.03 57 879.8
20260506221545 17 155 12.9 20.9 0.00 0.03 0.03 59 879.8
20260506220042 17 135 9.7 24.1 0.00 0.03 0.03 60 880.0
20260506214535 16 129 11.3 24.1 0.00 0.03 0.03 62 879.9
20260506213042 17 115 12.9 20.9 0.00 0.03 0.03 60 880.0
20260506211542 16 131 11.3 24.1 0.00 0.03 0.03 63 880.2
20260506210043 16 131 9.7 25.7 0.00 0.03 0.03 63 880.1
20260506204534 16 103 12.9 20.9 0.00 0.03 0.03 62 880.2
20260506203034 16 132 12.9 19.3 0.00 0.03 0.03 64 880.2
20260506201537 16 107 12.9 19.3 0.00 0.03 0.03 63 880.3
20260506200033 16 76 11.3 17.7 0.00 0.05 0.03 62 880.4
20260506194531 16 132 9.7 20.9 0.00 0.05 0.03 65 880.4
20260506193044 16 114 9.7 17.7 0.00 0.05 0.03 65 880.5
20260506191530 16 119 12.9 19.3 0.00 0.05 0.03 66 880.5
20260506190030 16 153 11.3 17.7 0.00 0.20 0.03 63 880.5
20260506184531 16 107 3.2 19.3 0.00 0.20 0.03 52 880.6
20260506183028 16 136 8.0 14.5 0.00 0.20 0.03 60 880.6
20260506181536 15 243 4.8 16.1 0.00 0.20 0.03 49 880.7
20260506180021 15 167 6.4 16.1 0.00 0.41 0.03 62 880.7
20260506174519 14 166 8.0 16.1 0.00 0.41 0.03 61 880.7
20260506173019 13 137 9.7 16.1 0.00 0.41 0.03 66 880.6
20260506171517 13 141 8.0 16.1 0.00 0.41 0.03 67 880.6
20260506170015 13 165 8.0 14.5 0.00 0.53 0.03 68 880.4
20260506164513 13 144 9.7 16.1 0.00 0.53 0.03 61 880.3
20260506163015 13 155 6.4 12.9 0.00 0.53 0.03 62 880.3
20260506161506 12 105 6.4 11.3 0.00 0.53 0.03 61 880.1
20260506160003 12 157 6.4 11.3 0.00 0.64 0.03 67 880.0
20260506154613 11 136 6.4 11.3 0.00 0.64 0.03 70 880.0
20260506153056 11 147 6.4 11.3 0.00 0.64 0.03 71 879.9
20260506151555 11 103 8.0 11.3 0.03 0.64 0.03 69 879.9
20260506150054 10 132 6.4 12.9 0.03 0.81 0.03 70 879.9
20260506144554 10 108 6.4 16.1 0.03 0.81 0.03 71 879.7
20260506143045 8 140 4.8 11.3 0.03 0.81 0.03 81 879.6
20260506141541 7 296 0.0 6.4 0.00 0.79 0.00 86 879.3
20260506140038 6 269 1.6 6.4 0.00 0.99 0.00 89 879.5
20260506134533 5 78 0.0 3.2 0.00 0.99 0.00 90 879.3
20260506133038 5 153 3.2 11.3 0.00 0.99 0.00 90 879.1
20260506131534 5 163 3.2 12.9 0.00 0.99 0.00 89 879.0
20260506130029 5 86 8.0 17.7 0.00 1.27 0.00 89 878.7
20260506124527 5 80 9.7 16.1 0.00 1.27 0.00 88 878.6
20260506123026 5 94 9.7 16.1 0.00 1.27 0.00 90 878.5
20260506121525 5 82 8.0 16.1 0.00 1.27 0.00 89 878.4
20260506120025 5 84 9.7 17.7 0.00 1.35 0.00 90 878.4
20260506114527 5 90 6.4 14.5 0.00 1.35 0.00 90 878.4
20260506113023 5 130 9.7 22.5 0.00 1.35 0.00 91 878.3
20260506111521 5 88 8.0 16.1 0.00 1.35 0.00 91 878.2
20260506110020 5 127 6.4 14.5 0.00 1.45 0.00 92 878.3
20260506104540 4 109 11.3 19.3 0.00 1.45 0.00 95 878.2
20260506103017 4 112 8.0 17.7 0.00 1.45 0.00 95 878.3
20260506101517 4 72 8.0 17.7 0.00 1.45 0.00 95 878.3
20260506100018 4 111 11.3 19.3 0.00 1.63 0.00 95 878.2
20260506094515 4 116 11.3 20.9 0.00 1.63 0.00 95 878.2
20260506093014 4 87 9.7 17.7 0.00 1.63 0.00 96 878.2
20260506091513 3 124 8.0 19.3 0.00 1.63 0.00 95 878.2
20260506090011 3 103 9.7 16.1 0.00 1.68 0.00 96 878.2
20260506084509 3 119 8.0 14.5 0.00 1.68 0.00 96 878.4